This is the latest recevied weather packets stored in our database for station/object SV9TNF-1. If no packets are shown the sender has not sent any weather packets the latest 10 day(s).
| Time | Temp. | Humidity | Pressure | Rain* | Wind** | Luminosity | Snow |
|---|---|---|---|---|---|---|---|
| 1777932768 | 14.44° C | 71% | 1006.4 hPa | 0 mm | 8.49 m/s, 235° | - | - |
| 1777932468 | 14.44° C | 71% | 1006.4 hPa | 0 mm | 8.94 m/s, 277° | - | - |
| 1777932168 | 14.44° C | 72% | 1006.4 hPa | 0 mm | 7.15 m/s, 241° | - | - |
| 1777931867 | 14.44° C | 72% | 1006.4 hPa | 0 mm | 5.81 m/s, 276° | - | - |
| 1777931567 | 14.44° C | 71% | 1006.4 hPa | 0 mm | 8.94 m/s, 184° | - | - |
| 1777931267 | 14.44° C | 71% | 1006.4 hPa | 0 mm | 10.28 m/s, 230° | - | - |
| 1777930967 | 14.44° C | 73% | 1006.4 hPa | 0 mm | 5.81 m/s, 285° | - | - |
| 1777930667 | 14.44° C | 73% | 1006.4 hPa | 0 mm | 8.05 m/s, 203° | - | - |
| 1777930367 | 14.44° C | 73% | 1006.8 hPa | 0 mm | 10.28 m/s, 207° | - | - |
| 1777930067 | 14.44° C | 73% | 1006.8 hPa | 0 mm | 6.26 m/s, 181° | - | - |
| 1777929767 | 14.44° C | 73% | 1006.8 hPa | 0 mm | 9.83 m/s, 232° | - | - |
| 1777929467 | 14.44° C | 73% | 1006.8 hPa | 0 mm | 8.05 m/s, 226° | - | - |
| 1777929166 | 14.44° C | 73% | 1006.8 hPa | 0 mm | 9.39 m/s, 256° | - | - |
| 1777928866 | 14.44° C | 72% | 1006.8 hPa | 0 mm | 7.15 m/s, 292° | - | - |
| 1777928566 | 14.44° C | 72% | 1006.8 hPa | 0 mm | 7.6 m/s, 252° | - | - |
| 1777928266 | 14.44° C | 71% | 1006.8 hPa | 0 mm | 8.05 m/s, 194° | - | - |
| 1777927966 | 14.44° C | 71% | 1006.8 hPa | 0 mm | 8.94 m/s, 166° | - | - |
| 1777927666 | 14.44° C | 70% | 1007.5 hPa | 0 mm | 6.26 m/s, 268° | - | - |
| 1777927366 | 14.44° C | 70% | 1007.5 hPa | 0 mm | 7.6 m/s, 270° | - | - |
| 1777927066 | 14.44° C | 70% | 1007.5 hPa | 0 mm | 10.28 m/s, 185° | - | - |
| 1777926766 | 14.44° C | 70% | 1007.5 hPa | 0 mm | 6.71 m/s, 255° | - | - |
| 1777926466 | 14.44° C | 70% | 1007.5 hPa | 0 mm | 7.15 m/s, 270° | - | - |
| 1777926166 | 14.44° C | 70% | 1007.5 hPa | 0 mm | 8.49 m/s, 177° | - | - |
| 1777925866 | 14.44° C | 70% | 1007.5 hPa | 0 mm | 12.07 m/s, 234° | - | - |
| 1777925566 | 14.44° C | 71% | 1007.5 hPa | 0 mm | 8.05 m/s, 340° | - | - |
* Rain latest hour (hover to see other rain measurements)
** Current wind speed in m/s (hover to see current wind gust speed)